Time,TemperatureF,DewpointF,PressureIn,WindDirection,WindDirectionDegrees,WindSpeedMPH,WindSpeedGustMPH,Humidity,HourlyPrecipIn,Conditions,Clouds,dailyrainin,SoftwareType,DateUTC
2013-05-04 00:01:00,34.5,29.3,29.68,East,86,0.0,0.0,81,0.00,,---,0.00,VWS V13.00,2013-05-04 08:01:00,
2013-05-04 00:06:00,34.3,29.1,29.68,ENE,77,0.0,0.0,81,0.00,,---,0.00,VWS V13.00,2013-05-04 08:06:00,
2013-05-04 00:11:00,34.3,29.1,29.68,NE,54,0.0,0.0,81,0.00,,---,0.00,VWS V13.00,2013-05-04 08:11:00,
2013-05-04 00:16:00,34.3,29.1,29.68,ENE,61,0.0,0.0,81,0.00,,---,0.00,VWS V13.00,2013-05-04 08:16:00,
2013-05-04 00:21:00,34.2,29.2,29.65,ENE,58,0.0,0.0,82,0.00,,---,0.00,VWS V13.00,2013-05-04 08:21:00,
2013-05-04 00:26:00,34.2,29.2,29.65,ESE,109,0.0,0.0,82,0.00,,---,0.00,VWS V13.00,2013-05-04 08:26:00,
2013-05-04 00:31:00,34.0,29.1,29.65,East,79,0.0,0.0,82,0.00,,---,0.00,VWS V13.00,2013-05-04 08:31:00,
2013-05-04 00:36:00,34.0,29.4,29.65,ENE,68,0.0,0.0,83,0.00,,---,0.00,VWS V13.00,2013-05-04 08:36:00,
2013-05-04 00:41:00,34.0,29.4,29.65,ENE,74,0.0,0.0,83,0.00,,---,0.00,VWS V13.00,2013-05-04 08:41:00,
2013-05-04 00:46:00,34.0,29.7,29.65,ENE,73,0.0,0.0,84,0.00,,---,0.00,VWS V13.00,2013-05-04 08:46:00,
2013-05-04 00:51:00,33.8,29.5,29.65,ENE,70,0.0,0.0,84,0.00,,---,0.00,VWS V13.00,2013-05-04 08:51:00,
2013-05-04 00:56:00,33.8,29.8,29.65,East,79,0.0,0.0,85,0.00,,---,0.00,VWS V13.00,2013-05-04 08:56:00,
2013-05-04 01:01:00,33.8,29.8,29.65,East,94,0.0,0.0,85,0.00,,---,0.00,VWS V13.00,2013-05-04 09:01:00,
2013-05-04 01:06:00,33.8,30.1,29.65,NE,45,0.0,0.0,86,0.00,,---,0.00,VWS V13.00,2013-05-04 09:06:00,
2013-05-04 01:11:00,33.8,30.1,29.65,ESE,122,0.0,0.0,86,0.00,,---,0.00,VWS V13.00,2013-05-04 09:11:00,
2013-05-04 01:16:00,33.8,30.1,29.65,East,86,0.0,0.0,86,0.00,,---,0.00,VWS V13.00,2013-05-04 09:16:00,
2013-05-04 01:21:00,33.8,30.1,29.65,ENE,76,0.0,0.0,86,0.00,,---,0.00,VWS V13.00,2013-05-04 09:21:00,
2013-05-04 01:26:00,33.8,30.1,29.65,North,8,0.0,0.0,86,0.00,,---,0.00,VWS V13.00,2013-05-04 09:26:00,
2013-05-04 01:31:00,33.8,30.1,29.65,ENE,78,0.0,0.0,86,0.00,,---,0.00,VWS V13.00,2013-05-04 09:31:00,
2013-05-04 01:36:00,33.8,30.1,29.65,East,101,0.0,0.0,86,0.00,,---,0.00,VWS V13.00,2013-05-04 09:36:00,
2013-05-04 01:41:00,33.6,30.2,29.65,ENE,76,0.0,0.0,87,0.00,,---,0.00,VWS V13.00,2013-05-04 09:41:00,
2013-05-04 01:46:00,33.6,30.2,29.65,NE,46,0.0,0.0,87,0.00,,---,0.00,VWS V13.00,2013-05-04 09:46:00,
2013-05-04 01:51:00,33.6,30.2,29.62,ENE,61,0.0,0.0,87,0.00,,---,0.00,VWS V13.00,2013-05-04 09:51:00,
2013-05-04 01:56:00,33.6,30.2,29.62,ENE,74,0.0,0.0,87,0.00,,---,0.00,VWS V13.00,2013-05-04 09:56:00,
2013-05-04 02:01:00,33.6,30.2,29.62,East,90,0.0,0.0,87,0.00,,---,0.00,VWS V13.00,2013-05-04 10:01:00,
2013-05-04 02:06:00,33.6,30.2,29.62,ENE,74,0.0,0.0,87,0.00,,---,0.00,VWS V13.00,2013-05-04 10:06:00,
2013-05-04 02:11:00,33.6,30.5,29.62,East,81,0.0,0.0,88,0.00,,---,0.00,VWS V13.00,2013-05-04 10:11:00,
2013-05-04 02:16:00,33.6,30.5,29.62,ESE,108,0.0,0.0,88,0.00,,---,0.00,VWS V13.00,2013-05-04 10:16:00,
2013-05-04 02:21:00,33.6,30.5,29.62,East,85,0.0,0.0,88,0.00,,---,0.00,VWS V13.00,2013-05-04 10:21:00,
2013-05-04 02:26:00,33.6,30.5,29.62,ENE,63,0.0,0.0,88,0.00,,---,0.00,VWS V13.00,2013-05-04 10:26:00,
2013-05-04 02:31:00,33.6,30.5,29.62,ENE,64,0.0,0.0,88,0.00,,---,0.00,VWS V13.00,2013-05-04 10:31:00,
2013-05-04 02:36:00,33.6,30.5,29.59,ESE,103,0.0,0.0,88,0.00,,---,0.00,VWS V13.00,2013-05-04 10:36:00,
2013-05-04 02:41:00,33.6,30.5,29.59,NNE,27,0.0,0.0,88,0.00,,---,0.00,VWS V13.00,2013-05-04 10:41:00,
2013-05-04 02:46:00,33.6,30.5,29.59,NNW,329,0.0,0.0,88,0.00,,---,0.00,VWS V13.00,2013-05-04 10:46:00,
2013-05-04 02:51:00,33.6,30.5,29.59,ESE,119,0.0,0.0,88,0.00,,---,0.00,VWS V13.00,2013-05-04 10:51:00,
2013-05-04 02:56:00,33.6,30.2,29.59,ENE,64,0.0,0.0,87,0.00,,---,0.00,VWS V13.00,2013-05-04 10:56:00,
2013-05-04 03:01:00,33.6,30.2,29.59,ENE,71,0.0,0.0,87,0.00,,---,0.00,VWS V13.00,2013-05-04 11:01:00,
2013-05-04 03:06:00,33.6,30.2,29.59,ENE,60,0.0,0.0,87,0.00,,---,0.00,VWS V13.00,2013-05-04 11:06:00,
2013-05-04 03:11:00,33.6,30.2,29.59,East,96,0.0,0.0,87,0.00,,---,0.00,VWS V13.00,2013-05-04 11:11:00,
2013-05-04 03:16:00,33.4,30.3,29.59,East,96,0.0,0.0,88,0.00,,---,0.00,VWS V13.00,2013-05-04 11:16:00,
2013-05-04 03:21:00,33.4,30.3,29.59,ESE,118,0.0,0.0,88,0.00,,---,0.00,VWS V13.00,2013-05-04 11:21:00,
2013-05-04 03:26:00,33.4,30.5,29.59,ENE,70,0.0,0.0,89,0.00,,---,0.00,VWS V13.00,2013-05-04 11:26:00,
2013-05-04 03:31:00,33.3,30.4,29.59,ESE,110,0.0,0.0,89,0.00,,---,0.00,VWS V13.00,2013-05-04 11:31:00,
2013-05-04 03:36:00,33.3,30.4,29.59,ENE,70,0.0,0.0,89,0.00,,---,0.00,VWS V13.00,2013-05-04 11:36:00,
2013-05-04 03:41:00,33.3,30.6,29.59,NNW,328,0.0,0.0,90,0.00,,---,0.00,VWS V13.00,2013-05-04 11:41:00,
2013-05-04 03:46:00,33.3,30.6,29.59,ENE,75,0.0,0.0,90,0.00,,---,0.00,VWS V13.00,2013-05-04 11:46:00,
2013-05-04 03:51:00,33.3,30.6,29.59,NNW,343,0.0,0.0,90,0.00,,---,0.00,VWS V13.00,2013-05-04 11:51:00,
2013-05-04 03:57:00,33.3,30.6,29.59,ENE,75,0.0,0.0,90,0.00,,---,0.00,VWS V13.00,2013-05-04 11:57:00,
2013-05-04 04:02:00,33.3,30.6,29.59,NE,50,0.0,0.0,90,0.00,,---,0.00,VWS V13.00,2013-05-04 12:02:00,
2013-05-04 04:07:00,33.3,30.6,29.59,NE,45,0.0,0.0,90,0.00,,---,0.00,VWS V13.00,2013-05-04 12:07:00,
2013-05-04 04:12:00,33.3,30.6,29.56,ENE,59,0.0,0.0,90,0.00,,---,0.00,VWS V13.00,2013-05-04 12:12:00,
2013-05-04 04:17:00,33.3,30.9,29.56,ENE,65,0.0,0.0,91,0.00,,---,0.00,VWS V13.00,2013-05-04 12:17:00,
2013-05-04 04:22:00,33.3,30.9,29.56,ESE,114,0.0,0.0,91,0.00,,---,0.00,VWS V13.00,2013-05-04 12:22:00,
2013-05-04 04:27:00,33.3,30.9,29.56,NNE,21,0.0,0.0,91,0.00,,---,0.00,VWS V13.00,2013-05-04 12:27:00,
2013-05-04 04:32:00,33.3,30.9,29.56,North,0,0.0,0.0,91,0.00,,---,0.00,VWS V13.00,2013-05-04 12:32:00,
2013-05-04 04:38:00,33.3,30.9,29.56,North,0,0.0,0.0,91,0.00,,---,0.00,VWS V13.00,2013-05-04 12:38:00,
2013-05-04 04:43:00,33.3,30.9,29.56,North,6,0.0,0.0,91,0.00,,---,0.00,VWS V13.00,2013-05-04 12:43:00,
2013-05-04 04:48:00,33.3,30.9,29.56,North,3,0.0,0.0,91,0.00,,---,0.00,VWS V13.00,2013-05-04 12:48:00,
2013-05-04 04:53:00,33.3,30.9,29.56,ENE,72,0.0,0.0,91,0.00,,---,0.00,VWS V13.00,2013-05-04 12:53:00,
2013-05-04 04:58:00,33.3,30.9,29.56,North,4,0.0,0.0,91,0.00,,---,0.00,VWS V13.00,2013-05-04 12:58:00,
2013-05-04 05:03:00,33.3,30.9,29.56,NNE,29,0.0,0.0,91,0.00,,---,0.00,VWS V13.00,2013-05-04 13:03:00,
2013-05-04 05:08:00,33.4,31.1,29.56,ENE,68,0.0,0.0,91,0.00,,---,0.00,VWS V13.00,2013-05-04 13:08:00,
2013-05-04 05:13:00,33.4,31.1,29.56,ENE,58,0.0,0.0,91,0.00,,---,0.00,VWS V13.00,2013-05-04 13:13:00,
2013-05-04 05:18:00,33.4,31.1,29.56,East,96,0.0,0.0,91,0.00,,---,0.00,VWS V13.00,2013-05-04 13:18:00,
2013-05-04 05:23:00,33.4,31.1,29.56,NNW,341,0.0,0.0,91,0.00,,---,0.00,VWS V13.00,2013-05-04 13:23:00,
2013-05-04 05:28:00,33.4,31.1,29.56,North,357,0.0,0.0,91,0.00,,---,0.00,VWS V13.00,2013-05-04 13:28:00,
2013-05-04 05:34:00,33.4,31.1,29.56,NW,312,0.0,0.0,91,0.00,,---,0.00,VWS V13.00,2013-05-04 13:34:00,
2013-05-04 05:39:00,33.4,30.8,29.56,North,3,0.0,0.0,90,0.00,,---,0.00,VWS V13.00,2013-05-04 13:39:00,
2013-05-04 05:44:00,33.4,30.8,29.56,North,3,0.0,0.0,90,0.00,,---,0.00,VWS V13.00,2013-05-04 13:44:00,
2013-05-04 05:48:00,33.4,30.8,29.56,ENE,58,0.0,0.0,90,0.00,,---,0.00,VWS V13.00,2013-05-04 13:48:00,
2013-05-04 05:53:00,33.4,30.8,29.56,SW,234,0.0,0.0,90,0.00,,---,0.00,VWS V13.00,2013-05-04 13:53:00,
2013-05-04 05:58:00,33.6,30.7,29.56,East,84,0.0,0.0,89,0.00,,---,0.00,VWS V13.00,2013-05-04 13:58:00,
2013-05-04 06:03:00,33.6,30.7,29.56,East,84,0.0,0.0,89,0.00,,---,0.00,VWS V13.00,2013-05-04 14:03:00,
2013-05-04 06:08:00,33.6,30.7,29.53,North,353,0.0,0.0,89,0.00,,---,0.00,VWS V13.00,2013-05-04 14:08:00,
2013-05-04 06:14:00,33.6,30.7,29.53,SSE,151,0.0,0.0,89,0.00,,---,0.00,VWS V13.00,2013-05-04 14:14:00,
2013-05-04 06:18:00,33.6,30.5,29.53,ENE,73,0.0,0.0,88,0.00,,---,0.00,VWS V13.00,2013-05-04 14:18:00,
2013-05-04 06:23:00,33.6,30.5,29.53,ESE,109,0.0,0.0,88,0.00,,---,0.00,VWS V13.00,2013-05-04 14:23:00,
2013-05-04 06:28:00,33.6,30.5,29.53,West,269,0.0,0.0,88,0.00,,---,0.00,VWS V13.00,2013-05-04 14:28:00,
2013-05-04 06:33:00,33.6,30.2,29.53,ENE,61,0.0,0.0,87,0.00,,---,0.00,VWS V13.00,2013-05-04 14:33:00,
2013-05-04 06:38:00,33.6,30.2,29.53,SSE,165,0.0,0.0,87,0.00,,---,0.00,VWS V13.00,2013-05-04 14:38:00,
2013-05-04 06:43:00,33.6,30.2,29.53,SW,233,0.0,0.0,87,0.00,,---,0.00,VWS V13.00,2013-05-04 14:43:00,
2013-05-04 06:48:00,33.6,30.2,29.53,SW,234,0.0,0.0,87,0.00,,---,0.00,VWS V13.00,2013-05-04 14:48:00,
2013-05-04 06:53:00,33.6,29.9,29.53,SW,234,0.0,0.0,86,0.00,,---,0.00,VWS V13.00,2013-05-04 14:53:00,
2013-05-04 06:58:00,33.6,29.9,29.53,SW,234,0.0,0.0,86,0.00,,---,0.00,VWS V13.00,2013-05-04 14:58:00,
2013-05-04 07:03:00,33.6,29.9,29.53,SW,234,0.0,0.0,86,0.00,,---,0.00,VWS V13.00,2013-05-04 15:03:00,
2013-05-04 07:08:00,33.6,29.9,29.53,SW,234,0.0,0.0,86,0.00,,---,0.00,VWS V13.00,2013-05-04 15:08:00,
2013-05-04 07:13:00,33.6,29.6,29.53,SW,235,0.0,0.0,85,0.00,,---,0.00,VWS V13.00,2013-05-04 15:13:00,
2013-05-04 07:18:00,33.6,29.6,29.53,SW,235,0.0,0.0,85,0.00,,---,0.00,VWS V13.00,2013-05-04 15:18:00,
2013-05-04 07:23:00,33.6,29.6,29.53,SW,236,0.0,0.0,85,0.00,,---,0.00,VWS V13.00,2013-05-04 15:23:00,
2013-05-04 07:28:00,33.6,29.6,29.53,WNW,284,0.0,0.0,85,0.00,,---,0.00,VWS V13.00,2013-05-04 15:28:00,
2013-05-04 07:33:00,33.6,29.6,29.53,South,183,0.0,0.0,85,0.00,,---,0.00,VWS V13.00,2013-05-04 15:33:00,
2013-05-04 07:38:00,33.6,29.3,29.53,NW,326,0.0,0.0,84,0.00,,---,0.00,VWS V13.00,2013-05-04 15:38:00,
2013-05-04 07:43:00,33.6,29.3,29.53,East,85,0.0,0.0,84,0.00,,---,0.00,VWS V13.00,2013-05-04 15:43:00,
2013-05-04 07:48:00,33.6,29.3,29.53,ENE,61,0.0,0.0,84,0.00,,---,0.00,VWS V13.00,2013-05-04 15:48:00,
2013-05-04 07:53:00,33.6,29.3,29.53,NNE,18,0.0,0.0,84,0.00,,---,0.00,VWS V13.00,2013-05-04 15:53:00,
2013-05-04 07:58:00,33.6,29.0,29.53,North,357,0.0,0.0,83,0.00,,---,0.00,VWS V13.00,2013-05-04 15:58:00,
2013-05-04 08:03:00,33.8,28.9,29.53,NW,313,0.0,0.0,82,0.00,,---,0.00,VWS V13.00,2013-05-04 16:03:00,
2013-05-04 08:08:00,33.8,28.9,29.53,North,353,0.0,0.0,82,0.00,,---,0.00,VWS V13.00,2013-05-04 16:08:00,
2013-05-04 08:13:00,33.8,28.6,29.53,East,81,0.0,0.0,81,0.00,,---,0.00,VWS V13.00,2013-05-04 16:13:00,
2013-05-04 08:18:00,34.0,28.5,29.53,WNW,299,0.0,0.0,80,0.00,,---,0.00,VWS V13.00,2013-05-04 16:18:00,
2013-05-04 08:23:00,34.0,28.5,29.53,NW,305,0.0,0.0,80,0.00,,---,0.00,VWS V13.00,2013-05-04 16:23:00,
2013-05-04 08:28:00,34.2,28.3,29.53,North,353,0.0,0.0,79,0.00,,---,0.00,VWS V13.00,2013-05-04 16:28:00,
2013-05-04 08:33:00,34.2,28.3,29.53,NW,307,0.0,0.0,79,0.00,,---,0.00,VWS V13.00,2013-05-04 16:33:00,
2013-05-04 08:38:00,34.2,28.0,29.53,NW,318,0.0,0.0,78,0.00,,---,0.00,VWS V13.00,2013-05-04 16:38:00,
2013-05-04 08:43:00,34.2,28.0,29.53,ESE,116,0.0,0.0,78,0.00,,---,0.00,VWS V13.00,2013-05-04 16:43:00,
2013-05-04 08:48:00,34.3,27.9,29.53,South,180,0.0,0.0,77,0.00,,---,0.00,VWS V13.00,2013-05-04 16:48:00,
2013-05-04 08:53:00,34.5,28.1,29.53,North,9,0.0,0.0,77,0.00,,---,0.00,VWS V13.00,2013-05-04 16:53:00,
2013-05-04 08:58:00,34.5,28.1,29.53,NNW,331,0.0,0.0,77,0.00,,---,0.00,VWS V13.00,2013-05-04 16:58:00,
2013-05-04 09:03:00,34.5,27.8,29.53,NNW,343,0.0,0.0,76,0.00,,---,0.00,VWS V13.00,2013-05-04 17:03:00,
2013-05-04 09:08:00,34.5,27.1,29.53,North,357,0.0,0.0,74,0.00,,---,0.00,VWS V13.00,2013-05-04 17:08:00,
2013-05-04 09:13:00,34.5,27.1,29.53,North,0,0.0,0.0,74,0.00,,---,0.00,VWS V13.00,2013-05-04 17:13:00,
2013-05-04 09:18:00,34.7,27.3,29.53,West,274,0.0,0.0,74,0.00,,---,0.00,VWS V13.00,2013-05-04 17:18:00,
2013-05-04 09:23:00,34.9,27.1,29.53,ENE,66,0.0,0.0,73,0.00,,---,0.00,VWS V13.00,2013-05-04 17:23:00,
2013-05-04 09:28:00,34.9,26.8,29.53,WSW,256,0.0,0.0,72,0.00,,---,0.00,VWS V13.00,2013-05-04 17:28:00,
2013-05-04 09:33:00,35.2,26.5,29.53,SW,236,0.0,0.0,70,0.00,,---,0.00,VWS V13.00,2013-05-04 17:33:00,
2013-05-04 09:38:00,35.6,25.7,29.53,WNW,291,0.0,0.0,67,0.00,,---,0.00,VWS V13.00,2013-05-04 17:38:00,
2013-05-04 09:43:00,35.8,25.9,29.56,WNW,291,0.0,0.0,67,0.00,,---,0.00,VWS V13.00,2013-05-04 17:43:00,
2013-05-04 09:48:00,36.1,26.3,29.56,NW,315,0.0,0.0,67,0.00,,---,0.00,VWS V13.00,2013-05-04 17:48:00,
2013-05-04 09:53:00,36.3,25.3,29.56,NNW,346,0.0,0.0,64,0.00,,---,0.00,VWS V13.00,2013-05-04 17:53:00,
2013-05-04 09:58:00,36.3,24.6,29.56,NNW,330,0.0,0.0,62,0.00,,---,0.00,VWS V13.00,2013-05-04 17:58:00,
2013-05-04 10:03:00,36.3,24.6,29.56,ESE,111,0.0,0.0,62,0.00,,---,0.00,VWS V13.00,2013-05-04 18:03:00,
2013-05-04 10:08:00,36.5,24.7,29.56,WSW,241,0.0,0.0,62,0.00,,---,0.00,VWS V13.00,2013-05-04 18:08:00,
2013-05-04 10:13:00,36.9,25.1,29.56,NW,321,0.0,0.0,62,0.00,,---,0.00,VWS V13.00,2013-05-04 18:13:00,
2013-05-04 10:18:00,37.2,25.0,29.56,WNW,290,0.0,0.0,61,0.00,,---,0.00,VWS V13.00,2013-05-04 18:18:00,
2013-05-04 10:23:00,37.4,24.8,29.56,West,266,0.0,0.0,60,0.00,,---,0.00,VWS V13.00,2013-05-04 18:23:00,
2013-05-04 10:28:00,37.2,23.8,29.56,SSW,200,0.0,0.0,58,0.00,,---,0.00,VWS V13.00,2013-05-04 18:28:00,
2013-05-04 10:33:00,37.2,23.4,29.56,North,0,0.0,0.0,57,0.00,,---,0.00,VWS V13.00,2013-05-04 18:33:00,
2013-05-04 10:38:00,37.2,23.4,29.56,WSW,238,0.0,0.0,57,0.00,,---,0.00,VWS V13.00,2013-05-04 18:38:00,
2013-05-04 10:43:00,37.2,23.0,29.56,North,357,0.0,0.0,56,0.00,,---,0.00,VWS V13.00,2013-05-04 18:43:00,
2013-05-04 10:48:00,37.4,23.1,29.56,North,1,0.0,0.0,56,0.00,,---,0.00,VWS V13.00,2013-05-04 18:48:00,
2013-05-04 10:53:00,37.4,23.1,29.56,ENE,65,0.0,0.0,56,0.00,,---,0.00,VWS V13.00,2013-05-04 18:53:00,
2013-05-04 10:58:00,37.4,23.6,29.56,NNE,30,0.0,8.1,57,0.00,,---,0.00,VWS V13.00,2013-05-04 18:58:00,
2013-05-04 11:03:00,37.6,23.3,29.56,West,274,0.0,0.0,56,0.00,,---,0.00,VWS V13.00,2013-05-04 19:03:00,
2013-05-04 11:08:00,37.9,24.1,29.56,NW,311,0.0,0.0,57,0.00,,---,0.00,VWS V13.00,2013-05-04 19:08:00,
2013-05-04 11:13:00,38.1,24.2,29.56,North,9,3.6,3.6,57,0.00,,---,0.00,VWS V13.00,2013-05-04 19:13:00,
2013-05-04 11:18:00,37.9,23.2,29.56,NNE,32,0.0,3.6,55,0.00,,---,0.00,VWS V13.00,2013-05-04 19:18:00,
2013-05-04 11:23:00,38.1,23.4,29.56,NNW,334,0.0,0.0,55,0.00,,---,0.00,VWS V13.00,2013-05-04 19:23:00,
2013-05-04 11:28:00,38.5,23.3,29.56,NNW,346,2.2,2.2,54,0.00,,---,0.00,VWS V13.00,2013-05-04 19:28:00,
2013-05-04 11:33:00,38.5,22.9,29.56,NNW,341,0.0,2.2,53,0.00,,---,0.00,VWS V13.00,2013-05-04 19:33:00,
2013-05-04 11:38:00,38.5,22.4,29.56,NNW,331,0.0,6.3,52,0.00,,---,0.00,VWS V13.00,2013-05-04 19:38:00,
2013-05-04 11:43:00,38.5,21.9,29.56,NNW,334,0.0,0.0,51,0.00,,---,0.00,VWS V13.00,2013-05-04 19:43:00,
2013-05-04 11:48:00,38.5,21.9,29.56,SW,227,0.0,0.0,51,0.00,,---,0.00,VWS V13.00,2013-05-04 19:48:00,
2013-05-04 11:53:00,38.8,22.7,29.56,North,357,0.0,0.0,52,0.00,,---,0.00,VWS V13.00,2013-05-04 19:53:00,
2013-05-04 11:58:00,38.8,22.3,29.56,ENE,71,0.0,6.3,51,0.00,,---,0.00,VWS V13.00,2013-05-04 19:58:00,
2013-05-04 12:03:00,39.2,22.6,29.59,NE,49,0.0,0.0,51,0.00,,---,0.00,VWS V13.00,2013-05-04 20:03:00,
2013-05-04 12:08:00,39.2,22.1,29.59,NW,307,0.0,0.0,50,0.00,,---,0.00,VWS V13.00,2013-05-04 20:08:00,
2013-05-04 12:13:00,39.4,22.3,29.59,NW,308,0.0,0.0,50,0.00,,---,0.00,VWS V13.00,2013-05-04 20:13:00,
2013-05-04 12:18:00,39.7,22.6,29.59,NNW,343,0.0,0.0,50,0.00,,---,0.00,VWS V13.00,2013-05-04 20:18:00,
2013-05-04 12:23:00,39.9,22.8,29.59,NNW,333,0.0,0.0,50,0.00,,---,0.00,VWS V13.00,2013-05-04 20:23:00,
2013-05-04 12:28:00,40.3,23.1,29.59,WNW,287,0.0,0.0,50,0.00,,---,0.00,VWS V13.00,2013-05-04 20:28:00,
2013-05-04 12:33:00,40.6,23.0,29.59,NE,47,0.0,0.0,49,0.00,,---,0.00,VWS V13.00,2013-05-04 20:33:00,
2013-05-04 12:38:00,41.0,23.8,29.59,NW,310,0.0,0.0,50,0.00,,---,0.00,VWS V13.00,2013-05-04 20:38:00,
2013-05-04 12:43:00,40.8,23.1,29.59,NW,326,3.1,3.1,49,0.00,,---,0.00,VWS V13.00,2013-05-04 20:43:00,
2013-05-04 12:48:00,40.8,23.1,29.59,NNW,344,0.0,3.1,49,0.00,,---,0.00,VWS V13.00,2013-05-04 20:48:00,
2013-05-04 12:53:00,40.3,22.7,29.59,NW,317,0.0,3.1,49,0.00,,---,0.00,VWS V13.00,2013-05-04 20:53:00,
2013-05-04 12:58:00,40.5,22.8,29.59,NNW,339,3.6,3.6,49,0.00,,---,0.00,VWS V13.00,2013-05-04 20:58:00,
2013-05-04 13:03:00,40.1,21.5,29.59,NW,322,0.0,7.2,47,0.00,,---,0.00,VWS V13.00,2013-05-04 21:03:00,
2013-05-04 13:08:00,39.9,22.3,29.59,NNW,339,6.3,7.2,49,0.00,,---,0.00,VWS V13.00,2013-05-04 21:08:00,
2013-05-04 13:13:00,39.9,21.8,29.62,North,0,0.0,7.2,48,0.00,,---,0.00,VWS V13.00,2013-05-04 21:13:00,
2013-05-04 13:18:00,39.9,21.3,29.62,NE,38,0.0,7.2,47,0.00,,---,0.00,VWS V13.00,2013-05-04 21:18:00,
2013-05-04 13:23:00,40.5,22.8,29.62,NW,305,0.0,0.0,49,0.00,,---,0.00,VWS V13.00,2013-05-04 21:23:00,
2013-05-04 13:28:00,41.2,23.0,29.62,NW,325,0.0,0.0,48,0.00,,---,0.00,VWS V13.00,2013-05-04 21:28:00,
2013-05-04 13:33:00,41.5,22.8,29.62,WNW,298,0.0,0.0,47,0.00,,---,0.00,VWS V13.00,2013-05-04 21:33:00,
2013-05-04 13:38:00,41.7,22.5,29.62,NNE,26,0.0,0.0,46,0.00,,---,0.00,VWS V13.00,2013-05-04 21:38:00,
2013-05-04 13:43:00,41.9,22.6,29.62,East,85,0.0,0.0,46,0.00,,---,0.00,VWS V13.00,2013-05-04 21:43:00,
2013-05-04 13:48:00,42.4,24.6,29.62,NNW,331,0.0,0.0,49,0.00,,---,0.00,VWS V13.00,2013-05-04 21:48:00,
2013-05-04 13:53:00,43.2,25.3,29.62,NW,306,0.0,8.3,49,0.00,,---,0.00,VWS V13.00,2013-05-04 21:53:00,
2013-05-04 13:58:00,43.3,24.5,29.62,NW,308,0.0,8.3,47,0.00,,---,0.00,VWS V13.00,2013-05-04 21:58:00,
2013-05-04 14:03:00,43.7,24.8,29.62,NW,312,0.0,0.0,47,0.00,,---,0.00,VWS V13.00,2013-05-04 22:03:00,
2013-05-04 14:08:00,43.5,24.1,29.62,East,80,0.0,0.0,46,0.00,,---,0.00,VWS V13.00,2013-05-04 22:08:00,
2013-05-04 14:13:00,43.7,24.3,29.62,NW,326,0.0,0.0,46,0.00,,---,0.00,VWS V13.00,2013-05-04 22:13:00,
2013-05-04 14:18:00,43.5,23.6,29.62,North,11,0.0,0.0,45,0.00,,---,0.00,VWS V13.00,2013-05-04 22:18:00,
2013-05-04 14:23:00,43.5,25.1,29.62,ENE,67,4.5,4.5,48,0.00,,---,0.00,VWS V13.00,2013-05-04 22:23:00,
2013-05-04 14:28:00,43.7,25.8,29.62,NW,321,0.0,4.5,49,0.00,,---,0.00,VWS V13.00,2013-05-04 22:28:00,
2013-05-04 14:33:00,43.7,25.3,29.62,WNW,297,0.0,4.5,48,0.00,,---,0.00,VWS V13.00,2013-05-04 22:33:00,
2013-05-04 14:38:00,43.7,24.8,29.62,North,1,0.0,4.5,47,0.00,,---,0.00,VWS V13.00,2013-05-04 22:38:00,
2013-05-04 14:43:00,43.7,25.3,29.62,NNW,342,10.5,10.5,48,0.00,,---,0.00,VWS V13.00,2013-05-04 22:43:00,
2013-05-04 14:48:00,44.1,25.1,29.65,North,3,0.0,10.5,47,0.00,,---,0.00,VWS V13.00,2013-05-04 22:48:00,
2013-05-04 14:53:00,44.8,25.8,29.65,North,357,0.0,10.5,47,0.00,,---,0.00,VWS V13.00,2013-05-04 22:53:00,
2013-05-04 14:58:00,46.0,27.0,29.65,West,264,0.0,10.5,47,0.00,,---,0.00,VWS V13.00,2013-05-04 22:58:00,
2013-05-04 15:03:00,46.8,27.1,29.65,North,11,0.0,0.0,46,0.00,,---,0.00,VWS V13.00,2013-05-04 23:03:00,
2013-05-04 15:08:00,46.4,26.8,29.65,NNW,342,0.0,0.0,46,0.00,,---,0.00,VWS V13.00,2013-05-04 23:08:00,
2013-05-04 15:13:00,46.4,25.7,29.65,North,0,0.0,0.0,44,0.00,,---,0.00,VWS V13.00,2013-05-04 23:13:00,
2013-05-04 15:18:00,46.4,24.6,29.65,East,101,0.0,0.0,42,0.00,,---,0.00,VWS V13.00,2013-05-04 23:18:00,
2013-05-04 15:23:00,45.7,24.5,29.65,NNW,336,0.0,0.0,43,0.00,,---,0.00,VWS V13.00,2013-05-04 23:23:00,
2013-05-04 15:28:00,47.7,30.4,29.65,NNW,339,0.0,0.0,51,0.00,,---,0.00,VWS V13.00,2013-05-04 23:28:00,
2013-05-04 15:33:00,48.7,29.4,29.65,WNW,283,0.0,0.0,47,0.00,,---,0.00,VWS V13.00,2013-05-04 23:33:00,
2013-05-04 15:38:00,49.3,28.3,29.65,NW,308,0.0,0.0,44,0.00,,---,0.00,VWS V13.00,2013-05-04 23:38:00,
2013-05-04 15:43:00,49.5,30.1,29.65,West,268,0.0,0.0,47,0.00,,---,0.00,VWS V13.00,2013-05-04 23:43:00,
2013-05-04 15:48:00,48.6,24.7,29.65,WNW,290,0.0,8.7,39,0.00,,---,0.00,VWS V13.00,2013-05-04 23:48:00,
2013-05-04 15:53:00,48.6,25.4,29.65,East,84,0.0,8.7,40,0.00,,---,0.00,VWS V13.00,2013-05-04 23:53:00,
2013-05-04 15:58:00,49.5,28.5,29.68,WNW,302,0.0,8.7,44,0.00,,---,0.00,VWS V13.00,2013-05-04 23:58:00,
2013-05-04 16:03:00,50.0,27.8,29.68,NW,326,4.9,7.6,42,0.00,,---,0.00,VWS V13.00,2013-05-05 00:03:00,
2013-05-04 16:08:00,47.5,23.2,29.68,NNW,327,2.7,7.6,38,0.00,,---,0.00,VWS V13.00,2013-05-05 00:08:00,
2013-05-04 16:13:00,47.7,24.5,29.68,NW,316,0.0,7.6,40,0.00,,---,0.00,VWS V13.00,2013-05-05 00:13:00,
2013-05-04 16:18:00,47.5,23.8,29.68,NNW,340,0.0,7.6,39,0.00,,---,0.00,VWS V13.00,2013-05-05 00:18:00,
2013-05-04 16:23:00,47.8,26.4,29.68,NNW,329,0.0,0.0,43,0.00,,---,0.00,VWS V13.00,2013-05-05 00:23:00,
2013-05-04 16:28:00,47.3,24.2,29.68,NNW,327,0.0,5.8,40,0.00,,---,0.00,VWS V13.00,2013-05-05 00:28:00,
2013-05-04 16:33:00,45.5,22.0,29.68,ENE,57,0.0,5.8,39,0.00,,---,0.00,VWS V13.00,2013-05-05 00:33:00,
2013-05-04 16:38:00,45.1,22.3,29.68,NNE,19,0.0,5.8,40,0.00,,---,0.00,VWS V13.00,2013-05-05 00:38:00,
2013-05-04 16:43:00,47.1,27.4,29.68,North,353,0.0,0.0,46,0.00,,---,0.00,VWS V13.00,2013-05-05 00:43:00,
2013-05-04 16:48:00,48.4,26.9,29.68,North,357,0.0,0.0,43,0.00,,---,0.00,VWS V13.00,2013-05-05 00:48:00,
2013-05-04 16:53:00,47.5,23.8,29.68,ENE,58,0.0,0.0,39,0.00,,---,0.00,VWS V13.00,2013-05-05 00:53:00,
2013-05-04 16:58:00,47.3,24.2,29.68,ESE,118,0.0,0.0,40,0.00,,---,0.00,VWS V13.00,2013-05-05 00:58:00,
2013-05-04 17:03:00,48.0,25.5,29.68,NNW,328,0.0,0.0,41,0.00,,---,0.00,VWS V13.00,2013-05-05 01:03:00,
2013-05-04 17:08:00,48.2,23.8,29.68,NNE,18,5.4,5.4,38,0.00,,---,0.00,VWS V13.00,2013-05-05 01:08:00,
2013-05-04 17:13:00,47.8,24.7,29.68,NW,315,4.0,5.4,40,0.00,,---,0.00,VWS V13.00,2013-05-05 01:13:00,
2013-05-04 17:18:00,48.0,23.6,29.68,NE,34,0.0,5.4,38,0.00,,---,0.00,VWS V13.00,2013-05-05 01:18:00,
2013-05-04 17:23:00,46.6,22.4,29.68,North,0,0.0,0.0,38,0.00,,---,0.00,VWS V13.00,2013-05-05 01:23:00,
2013-05-04 17:28:00,46.8,22.5,29.68,NE,52,0.0,0.0,38,0.00,,---,0.00,VWS V13.00,2013-05-05 01:28:00,
2013-05-04 17:33:00,47.1,24.1,29.68,NNW,331,5.8,5.8,40,0.00,,---,0.00,VWS V13.00,2013-05-05 01:33:00,
2013-05-04 17:38:00,47.5,24.4,29.68,NW,325,0.0,5.8,40,0.00,,---,0.00,VWS V13.00,2013-05-05 01:38:00,
2013-05-04 17:43:00,47.7,23.9,29.68,NNE,12,0.0,0.0,39,0.00,,---,0.00,VWS V13.00,2013-05-05 01:43:00,
2013-05-04 17:48:00,48.0,24.3,29.68,NNW,346,0.0,0.0,39,0.00,,---,0.00,VWS V13.00,2013-05-05 01:48:00,
2013-05-04 17:53:00,47.3,22.4,29.68,ENE,65,3.1,3.1,37,0.00,,---,0.00,VWS V13.00,2013-05-05 01:53:00,
2013-05-04 17:58:00,46.8,22.5,29.71,WNW,283,0.0,5.8,38,0.00,,---,0.00,VWS V13.00,2013-05-05 01:58:00,
2013-05-04 18:03:00,46.8,21.9,29.71,NNW,337,5.4,8.7,37,0.00,,---,0.00,VWS V13.00,2013-05-05 02:03:00,
2013-05-04 18:08:00,46.0,21.2,29.71,North,357,0.0,8.7,37,0.00,,---,0.00,VWS V13.00,2013-05-05 02:08:00,
2013-05-04 18:13:00,46.0,21.9,29.71,WNW,292,0.0,8.7,38,0.00,,---,0.00,VWS V13.00,2013-05-05 02:13:00,
2013-05-04 18:18:00,46.0,21.2,29.71,North,6,0.0,8.7,37,0.00,,---,0.00,VWS V13.00,2013-05-05 02:18:00,
2013-05-04 18:23:00,45.7,20.9,29.71,NNE,12,0.0,7.6,37,0.00,,---,0.00,VWS V13.00,2013-05-05 02:23:00,
2013-05-04 18:28:00,45.3,20.6,29.71,NNW,341,0.0,7.6,37,0.00,,---,0.00,VWS V13.00,2013-05-05 02:28:00,
2013-05-04 18:33:00,44.8,20.7,29.71,North,2,0.0,7.6,38,0.00,,---,0.00,VWS V13.00,2013-05-05 02:33:00,
2013-05-04 18:38:00,44.6,20.0,29.71,ENE,70,0.0,7.6,37,0.00,,---,0.00,VWS V13.00,2013-05-05 02:38:00,
2013-05-04 18:43:00,44.2,20.3,29.71,NE,34,0.0,0.0,38,0.00,,---,0.00,VWS V13.00,2013-05-05 02:43:00,
2013-05-04 18:48:00,44.2,20.3,29.71,North,353,0.0,0.0,38,0.00,,---,0.00,VWS V13.00,2013-05-05 02:48:00,
2013-05-04 18:53:00,44.8,20.1,29.71,NNE,33,0.0,0.0,37,0.00,,---,0.00,VWS V13.00,2013-05-05 02:53:00,
2013-05-04 18:58:00,44.8,20.7,29.71,NNW,335,0.0,0.0,38,0.00,,---,0.00,VWS V13.00,2013-05-05 02:58:00,
2013-05-04 19:03:00,45.1,21.1,29.71,West,281,0.0,0.0,38,0.00,,---,0.00,VWS V13.00,2013-05-05 03:03:00,
2013-05-04 19:08:00,45.3,21.2,29.71,WNW,297,0.0,0.0,38,0.00,,---,0.00,VWS V13.00,2013-05-05 03:08:00,
2013-05-04 19:13:00,45.1,20.4,29.71,North,353,0.0,0.0,37,0.00,,---,0.00,VWS V13.00,2013-05-05 03:13:00,
2013-05-04 19:18:00,45.0,19.6,29.71,WNW,299,0.0,0.0,36,0.00,,---,0.00,VWS V13.00,2013-05-05 03:18:00,
2013-05-04 19:23:00,44.2,18.3,29.71,North,7,0.0,0.0,35,0.00,,---,0.00,VWS V13.00,2013-05-05 03:23:00,
2013-05-04 19:28:00,44.1,18.8,29.74,NNW,338,0.0,0.0,36,0.00,,---,0.00,VWS V13.00,2013-05-05 03:28:00,
2013-05-04 19:33:00,44.1,20.1,29.74,North,0,0.0,0.0,38,0.00,,---,0.00,VWS V13.00,2013-05-05 03:33:00,
2013-05-04 19:38:00,43.9,19.9,29.74,WNW,289,0.0,0.0,38,0.00,,---,0.00,VWS V13.00,2013-05-05 03:38:00,
2013-05-04 19:43:00,43.9,19.9,29.74,NNW,340,0.0,0.0,38,0.00,,---,0.00,VWS V13.00,2013-05-05 03:43:00,
2013-05-04 19:48:00,43.9,19.9,29.74,North,353,0.0,0.0,38,0.00,,---,0.00,VWS V13.00,2013-05-05 03:48:00,
2013-05-04 19:53:00,43.7,18.5,29.74,WNW,299,0.0,0.0,36,0.00,,---,0.00,VWS V13.00,2013-05-05 03:53:00,
2013-05-04 19:58:00,43.5,19.0,29.74,NNW,327,0.0,0.0,37,0.00,,---,0.00,VWS V13.00,2013-05-05 03:58:00,
2013-05-04 20:27:00,42.3,18.5,29.74,NW,307,0.0,0.0,38,0.00,,---,0.00,VWS V13.00,2013-05-05 04:27:00,
2013-05-04 20:28:00,42.3,18.5,29.74,North,357,0.0,0.0,38,0.00,,---,0.00,VWS V13.00,2013-05-05 04:28:00,
2013-05-04 20:33:00,42.3,19.1,29.74,North,353,0.0,0.0,39,0.00,,---,0.00,VWS V13.00,2013-05-05 04:33:00,
2013-05-04 20:38:00,41.9,18.8,29.74,NNW,330,0.0,0.0,39,0.00,,---,0.00,VWS V13.00,2013-05-05 04:38:00,
2013-05-04 20:43:00,41.9,18.8,29.74,WNW,302,0.0,0.0,39,0.00,,---,0.00,VWS V13.00,2013-05-05 04:43:00,
2013-05-04 20:52:00,40.6,17.6,29.74,NNW,330,0.0,0.0,39,0.00,,---,0.00,VWS V13.00,2013-05-05 04:52:00,
2013-05-04 20:57:00,40.5,17.5,29.74,NNW,335,0.0,0.0,39,0.00,,---,0.00,VWS V13.00,2013-05-05 04:57:00,
2013-05-04 21:02:00,40.5,17.5,29.74,NNW,341,0.0,0.0,39,0.00,,---,0.00,VWS V13.00,2013-05-05 05:02:00,
2013-05-04 21:07:00,40.5,17.5,29.74,NW,322,0.0,0.0,39,0.00,,---,0.00,VWS V13.00,2013-05-05 05:07:00,
2013-05-04 21:12:00,39.9,17.0,29.77,NW,320,0.0,0.0,39,0.00,,---,0.00,VWS V13.00,2013-05-05 05:12:00,
2013-05-04 21:17:00,39.7,16.8,29.77,WNW,288,0.0,0.0,39,0.00,,---,0.00,VWS V13.00,2013-05-05 05:17:00,
2013-05-04 21:22:00,39.7,16.8,29.77,SE,142,0.0,0.0,39,0.00,,---,0.00,VWS V13.00,2013-05-05 05:22:00,
2013-05-04 21:27:00,39.4,16.5,29.77,ENE,68,0.0,0.0,39,0.00,,---,0.00,VWS V13.00,2013-05-05 05:27:00,
2013-05-04 21:32:00,38.8,17.2,29.77,North,4,0.0,0.0,41,0.00,,---,0.00,VWS V13.00,2013-05-05 05:32:00,
2013-05-04 21:38:00,38.3,16.7,29.77,NNE,19,0.0,0.0,41,0.00,,---,0.00,VWS V13.00,2013-05-05 05:38:00,
2013-05-04 21:43:00,37.9,16.9,29.77,NNE,19,0.0,0.0,42,0.00,,---,0.00,VWS V13.00,2013-05-05 05:43:00,
2013-05-04 21:48:00,37.8,16.8,29.77,NNE,19,0.0,0.0,42,0.00,,---,0.00,VWS V13.00,2013-05-05 05:48:00,
2013-05-04 21:53:00,37.6,17.1,29.77,North,0,0.0,0.0,43,0.00,,---,0.00,VWS V13.00,2013-05-05 05:53:00,
2013-05-04 21:58:00,36.9,18.0,29.77,North,2,0.0,0.0,46,0.00,,---,0.00,VWS V13.00,2013-05-05 05:58:00,
2013-05-04 22:03:00,36.1,18.4,29.77,NE,43,0.0,0.0,48,0.00,,---,0.00,VWS V13.00,2013-05-05 06:03:00,
2013-05-04 22:08:00,35.8,18.5,29.77,ENE,58,0.0,0.0,49,0.00,,---,0.00,VWS V13.00,2013-05-05 06:08:00,
2013-05-04 22:13:00,35.6,18.3,29.80,NE,56,0.0,0.0,49,0.00,,---,0.00,VWS V13.00,2013-05-05 06:13:00,
2013-05-04 22:18:00,35.6,18.3,29.80,North,6,0.0,0.0,49,0.00,,---,0.00,VWS V13.00,2013-05-05 06:18:00,
2013-05-04 22:23:00,35.4,18.6,29.80,North,6,0.0,0.0,50,0.00,,---,0.00,VWS V13.00,2013-05-05 06:23:00,
2013-05-04 22:28:00,35.6,18.8,29.80,North,6,0.0,0.0,50,0.00,,---,0.00,VWS V13.00,2013-05-05 06:28:00,
2013-05-04 22:33:00,35.6,18.8,29.80,WNW,302,0.0,0.0,50,0.00,,---,0.00,VWS V13.00,2013-05-05 06:33:00,
2013-05-04 22:38:00,35.2,18.9,29.83,NNW,338,0.0,0.0,51,0.00,,---,0.00,VWS V13.00,2013-05-05 06:38:00,
2013-05-04 22:43:00,35.2,18.9,29.83,North,353,0.0,0.0,51,0.00,,---,0.00,VWS V13.00,2013-05-05 06:43:00,
2013-05-04 22:48:00,34.2,17.9,29.83,North,357,0.0,0.0,51,0.00,,---,0.00,VWS V13.00,2013-05-05 06:48:00,
2013-05-04 22:53:00,33.8,17.6,29.83,North,0,0.0,0.0,51,0.00,,---,0.00,VWS V13.00,2013-05-05 06:53:00,
2013-05-04 22:58:00,33.8,17.6,29.83,North,0,0.0,0.0,51,0.00,,---,0.00,VWS V13.00,2013-05-05 06:58:00,
2013-05-04 23:03:00,34.0,18.2,29.83,North,0,0.0,0.0,52,0.00,,---,0.00,VWS V13.00,2013-05-05 07:03:00,
2013-05-04 23:08:00,34.3,18.5,29.83,NW,314,0.0,0.0,52,0.00,,---,0.00,VWS V13.00,2013-05-05 07:08:00,
2013-05-04 23:13:00,34.3,18.5,29.83,NW,314,0.0,0.0,52,0.00,,---,0.00,VWS V13.00,2013-05-05 07:13:00,
2013-05-04 23:18:00,34.0,18.2,29.83,NW,314,0.0,0.0,52,0.00,,---,0.00,VWS V13.00,2013-05-05 07:18:00,
2013-05-04 23:23:00,33.8,18.0,29.83,NW,314,0.0,0.0,52,0.00,,---,0.00,VWS V13.00,2013-05-05 07:23:00,
2013-05-04 23:28:00,33.8,18.0,29.83,NW,314,0.0,0.0,52,0.00,,---,0.00,VWS V13.00,2013-05-05 07:28:00,
2013-05-04 23:38:00,32.9,17.7,29.83,NW,312,0.0,0.0,53,0.00,,---,0.00,VWS V13.00,2013-05-05 07:38:00,